Location: Dötzum
(52.0808°N, 9.8063°E)
Time: 05:31:40
(UTC+00:00)

Cosmos 1674 Rocket - Pass Details

Date: 27 May 2022
Orbit: 602 x 629 km, 82.5° (Epoch: 24 June)

Event Time Altitude Azimuth Distance (km) Brightness Sun altitude
Exits shadow 00:23:09 23° 226° (SW) 1,316 4.7 -15.3°
Maximum altitude 00:25:30 43° 287° (WNW) 852 4.2 -15.2°
Drops below altitude 10° 00:29:39 10° 360° (N) 1,963 7.3 -15.0°
Sets 00:31:58 0° 7° (N) 2,870 8.7 -14.9°
